Regional Weather Roundup
Issued by NWS

Home | Current Version | Previous Version | Graphics & Text | Print | Product List | Glossary Off
Versions: 1 2 3 4 5 6 7 8 9 10 11 12 13 14 15 16 17 18 19 20 21 22 23 24 25 26 27 28 29 30 31 32 33 34 35 36 37 38 39 40 41 42 43 44 45 46 47 48 49 50

000
ASUS43 KIND 032059
RWRIN

WEATHER ROUNDUP FOR INDIANA
NATIONAL WEATHER SERVICE INDIANAPOLIS IN
500 PM EDT TUE MAY 03 2016

NOTE: "FAIR" INDICATES FEW OR NO CLOUDS BELOW 12,000 FEET WITH NO
SIGNIFICANT WEATHER AND/OR OBSTRUCTIONS TO VISIBILITY.

* - STATION DOES NOT REPORT WEATHER SUCH AS PRECIPITATION OR FOG.

+ - STATION NOT QUALITY CONTROLLED BY THE NATIONAL WEATHER SERVICE.
    USE DATA WITH CAUTION...ESPECIALLY DEWPOINT AND RELATIVE
    HUMIDITY OBSERVATIONS.

INZ001>003-010>013-019-020-032200-
NORTHWEST INDIANA

CITY           SKY/WX    TMP DP  RH WIND       PRES   REMARKS
GARY /AIRPORT/ PTSUNNY   66  45  45 W12       29.84F
RENSSELAER +   MOSUNNY   64  34  32 W9        29.86F

$$

LMZ046-743>745-032200-
SOUTHERN LAKE MICHIGAN

STATION/POSITION TIME  TEMP    WIND        PRES    WAVE
                       AIR SEA DIR/SP/G            HT
                 (UTC) (F)     (DEG/KT/KT) (MB)    (FT)
BURNS HARBOR     2000   63      40/  3/  3 1011.9F
MICHIGAN CITY    2000   59     230/  4/  4   N/A

$$

INZ004-005-014>016-021>024-032200-
NORTH CENTRAL INDIANA

CITY           SKY/WX    TMP DP  RH WIND       PRES   REMARKS
ELKHART        MOSUNNY   64  41  42 W8        29.84F
GOSHEN         PTSUNNY   64  41  42 W10       29.84F
SOUTH BEND     SUNNY     64  35  34 NW7G18    29.84F

$$

INZ006>009-017-018-025>027-032200-
NORTHEAST INDIANA

CITY           SKY/WX    TMP DP  RH WIND       PRES   REMARKS
ANGOLA *+      PTSUNNY   63  37  39 W5        29.83F
FORT WAYNE     PTSUNNY   62  45  53 W12       29.87F

$$

INZ028-029-035-036-043>045-051>053-032200-
WEST CENTRAL INDIANA

CITY           SKY/WX    TMP DP  RH WIND       PRES   REMARKS
CRAWFORDSVL +  PTSUNNY   62  41  47 NW5       29.89F
GREENCASTLE +  PTSUNNY   61  43  51 NW5       29.90F
LAFAYETTE      MOSUNNY   65  39  38 VRB7      29.87F
TERRE HAUTE    CLOUDY    64  40  41 NW7       29.91F

$$

INZ030>032-037>040-046>048-054>057-064-065-032200-
CENTRAL INDIANA

CITY           SKY/WX    TMP DP  RH WIND       PRES   REMARKS
COLUMBUS       CLOUDY    55  50  82 NW5       29.92F
INDIANAPOLIS   PTSUNNY   60  43  53 NW6       29.89F
-EAGLE CREEK   PTSUNNY   60  44  55 VRB3      29.89F
KOKOMO *+      PTSUNNY   63  45  51 CALM      29.87F
SHELBYVILLE    CLOUDY    59  47  64 N7        29.89F

$$

INZ033-034-041-042-049-050-058-059-032200-
EAST CENTRAL INDIANA

CITY           SKY/WX    TMP DP  RH WIND       PRES   REMARKS
MUNCIE         MOSUNNY   59  46  62 NW8       29.88F

$$

INZ060-061-067>069-081>083-085>088-032200-
SOUTHWEST INDIANA

CITY           SKY/WX    TMP DP  RH WIND       PRES   REMARKS
EVANSVILLE     CLOUDY    61  43  51 NW6       29.95F
HUNTINGBURG *+ CLOUDY    61  46  59 W8        29.93F

$$

INZ062-063-066-070>080-084-089>092-032200-
SOUTH CENTRAL AND SOUTHEAST INDIANA

CITY           SKY/WX    TMP DP  RH WIND       PRES   REMARKS
BLOOMINGTON    PTSUNNY   60  45  57 CALM      29.91F
MADISON *+     CLOUDY    55  50  82 NW6       29.92F
SEYMOUR +      CLOUDY    57  48  72 N6        29.91F

$$




USA.gov is the U.S. government's official web portal to all federal, state and local government web resources and services.